This demonstration page uses our WeatherBlox Daily Observations layout. Learn more.

Left ArrowRight Arrow

41.12389, -100.76542

Hourly Observations for September 24, 2017

Temp ( °F °C ) Dew Point ( °F °C ) Humidity (%) Winds ( mph kmh ) Pressure ( in mb ) Visibility ( mi km ) Precip ( " mm )
12:46 am 00:46 Cloudy with Rain 53 11.7 53 11.7 100 100 VRB 5 7 29.85 1011 7 11 0.10 2.54
12:53 am 00:53 Cloudy with Light Rain 53 11.7 53 11.7 100 100 E 8 13 29.86 1011 9 14 0.11 2.79
1:53 am 01:53 Cloudy with Rain 53 11.7 53 11.7 100 100 N 3 6 29.88 1012 4 6 0.09 2.29
2:37 am 02:37 Cloudy with Heavy Rain 53 11.7 52 11.1 96 96 NW 6 9 29.88 1012 3 4 0.14 3.56
2:49 am 02:49 Cloudy with Heavy Rain 54 12 52 11 94 94 NW 7 11 29.88 1012 2 3 0.28 7.11
2:53 am 02:53 Cloudy with Heavy Rain 53 11.7 52 11.1 96 96 NW 8 13 29.88 1012 2 3 0.32 8.13
2:58 am 02:58 Cloudy with Heavy Rain 53 11.7 52 11.1 96 96 NNW 9 15 29.85 1011 2 3 0.05 1.27
3:08 am 03:08 Cloudy with Rain 52 11.1 52 11.1 100 100 NNW 7 11 29.85 1011 3 5 0.16 4.06
3:23 am 03:23 Cloudy with Rain 52 11.1 52 11.1 100 100 NNW 9 15 29.85 1011 4 6 0.23 5.84
3:49 am 03:49 Cloudy with Heavy Rain 52 11 52 11 100 100 WNW 16 26 29.85 1011 3 4 0.37 9.40
3:53 am 03:53 Cloudy with Heavy Rain 52 11.1 51 10.6 97 97 NW 12 19 29.86 1011 2 3 0.42 10.67
4:03 am 04:03 Cloudy with Heavy Rain 52 11.1 51 10.6 97 97 NW 8 13 29.85 1011 3 5 0.09 2.29
4:10 am 04:10 Cloudy with Heavy Rain 52 11.1 51 10.6 97 97 WNW 14 22 29.88 1012 3 4 0.13 3.30
4:22 am 04:22 Cloudy with Heavy Rain 51 10.6 51 10.6 100 100 NNW 9 15 29.85 1011 2 2 0.31 7.87
4:39 am 04:39 Cloudy with Heavy Rain 51 10.6 50 10 96 96 WNW 7 11 29.88 1012 1 2 0.53 13.46
4:47 am 04:47 Cloudy with Heavy Rain 52 11 50 10 94 94 NW 9 15 29.88 1012 2 3 0.62 15.75
4:48 am 04:48 Cloudy with Heavy Rain 51 10.6 50 10 96 96 NW 9 15 29.88 1012 2 3 0.63 16.00
4:59 am 04:59 Cloudy with Rain 51 10.6 50 10 96 96 NNW 7 11 29.88 1012 4 6 0.05 1.27
5:20 am 05:20 Cloudy with Heavy Rain 51 10.6 50 10 96 96 undefined N/A 29.85 1011 4 6 0.12 3.05
5:28 am 05:28 Cloudy with Rain 51 10.6 50 10 96 96 NNW 5 7 29.88 1012 5 8 0.14 3.56
5:53 am 05:53 Cloudy with Rain 50 10 49 9.4 96 96 NNW 7 11 29.89 1012 4 6 0.21 5.33
6:43 am 06:43 Cloudy with Heavy Rain 50 10 49 9.4 96 96 NNE 9 15 29.88 1012 4 6 0.18 4.57
6:53 am 06:53 Cloudy with Rain 50 10 49 9.4 96 96 NNW 8 13 29.89 1012 6 10 0.22 5.59
7:53 am 07:53 Mostly Cloudy with Light Rain 50 10 49 9.4 96 96 VRB 6 9 29.90 1012 10 16 0.02 0.51
8:03 am 08:03 Cloudy 51 10.6 49 9.4 92 92 W 12 19 29.91 1013 10 16 0.00 0.03
8:12 am 08:12 Cloudy 51 10.6 49 9.4 92 92 WNW 10 17 29.91 1013 10 16 0.00 0.03
8:46 am 08:46 Cloudy with Light Rain 51 10.6 50 10 96 96 NNW 6 9 29.91 1013 6 10 0.00 0.03
8:53 am 08:53 Cloudy with Light Rain 51 10.6 50 10 96 96 WNW 5 7 29.94 1014 7 11 0.00 0.03
9:20 am 09:20 Cloudy with Light Rain 52 11.1 51 10.6 97 97 WNW 6 9 29.94 1014 10 16 0.00 0.03
9:42 am 09:42 Cloudy with Light Rain 52 11.1 51 10.6 97 97 N 7 11 29.91 1013 4 6 0.00 0.03
9:53 am 09:53 Cloudy 52 11.1 50 10 93 93 N 10 17 29.94 1014 9 14 0.00 0.03
10:15 am 10:15 Cloudy 52 11.1 50 10 93 93 N 10 17 29.94 1014 10 16 0.00 0.00
10:53 am 10:53 Cloudy 53 11.7 50 10 89 89 NNW 12 19 29.97 1015 9 14 0.00 0.03
11:53 am 11:53 Cloudy 54 12.2 50 10 87 87 N 12 19 29.97 1015 10 16 0.00 0.03
12:53 pm 12:53 Cloudy 56 13.3 50 10 81 81 N 8 13 29.98 1015 10 16 0.00 0.00
1:01 pm 13:01 Cloudy 56 13.3 50 10 81 81 N 9 15 29.97 1015 10 16 0.00 0.00
1:53 pm 13:53 Cloudy 56 13.3 50 10 81 81 NNE 7 11 29.99 1016 10 16 0.00 0.00
2:53 pm 14:53 Cloudy 57 13.9 51 10.6 81 81 NNE 14 22 29.96 1015 10 16 0.00 0.00
3:53 pm 15:53 Cloudy with Light Rain 57 13.9 51 10.6 81 81 NNE 10 17 29.96 1015 10 16 0.00 0.03
4:53 pm 16:53 Cloudy with Light Rain 56 13.3 52 11.1 87 87 NNE 8 13 29.97 1015 9 14 0.02 0.51
5:14 pm 17:14 Cloudy with Rain 56 13.3 53 11.7 90 90 ENE 7 11 29.97 1015 8 13 0.01 0.25
5:25 pm 17:25 Cloudy with Light Rain 56 13.3 53 11.7 90 90 NNE 6 9 29.97 1015 9 14 0.03 0.76
5:53 pm 17:53 Cloudy with Light Rain 55 12.8 53 11.7 93 93 NNE 9 15 29.97 1015 10 16 0.03 0.76
6:40 pm 18:40 Cloudy with Light Rain 55 12.8 52 11.1 90 90 NNE 6 9 29.97 1015 10 16 0.01 0.25
6:53 pm 18:53 Cloudy with Rain 54 12.2 52 11.1 93 93 NNE 8 13 29.98 1015 7 11 0.02 0.51
7:20 pm 19:20 Cloudy 54 12.2 52 11.1 93 93 NNE 5 7 29.97 1015 10 16 0.00 0.03
7:53 pm 19:53 Cloudy with Light Rain 54 12.2 52 11.1 93 93 NNE 5 7 29.98 1015 9 14 0.01 0.25
8:53 pm 20:53 Cloudy 53 11.7 52 11.1 96 96 NE 9 15 30.00 1016 10 16 0.03 0.76
9:00 pm 21:00 Cloudy 53 11.7 52 11.1 96 96 ENE 7 11 30.00 1016 10 16 0.00 0.00
9:10 pm 21:10 Cloudy 53 11.7 52 11.1 96 96 NE 5 7 30.00 1016 10 16 0.00 0.00
9:51 pm 21:51 Cloudy 54 12 52 11 94 94 NE 10 17 30.00 1016 10 16 0.00 0.00
9:53 pm 21:53 Cloudy 53 11.7 51 10.6 93 93 NE 8 13 30.01 1016 10 16 0.00 0.00
10:35 pm 22:35 Cloudy with Light Rain 53 11.7 51 10.6 93 93 NE 10 17 30.00 1016 10 16 0.00 0.03
10:53 pm 22:53 Cloudy with Light Rain 53 11.7 51 10.6 93 93 NE 9 15 30.01 1016 10 16 0.01 0.25
11:27 pm 23:27 Cloudy with Light Rain 52 11.1 50 10 93 93 NE 15 24 29.97 1015 10 16 0.00 0.03
11:53 pm 23:53 Cloudy 52 11.1 50 10 93 93 NE 14 22 29.99 1016 10 16 0.00 0.03

Powered by AerisWeather